User: anonymous   Login
Location: Unspecified
(0.0000°N, 0.0000°E)
Time: 00:57:13
(UTC+00:00)
Language:

N. Korean satellite - Orbit

View from above orbital plane
View from above orbital plane
View from above satellite
View from above satellite

Ground track
Ground track

The orbit data is extracted from the following two-line orbital elements,

1 39026U 12072A   15185.85533695  .00004786  00000-0  21685-3 0  9996
2 39026 097.2818 216.8098 0046445 171.0850 189.1221 15.20342357141390
Epoch (UTC): 04 July 2015 20:31:41
Eccentricity: 0.0046445
inclination: 97.2818°
perigee height: 473 km
apogee height: 537 km
right ascension of ascending node: 216.8098°
argument of perigee: 171.0850°
revolutions per day: 15.20342357
mean anomaly at epoch: 189.1221°
orbit number at epoch: 14139

The dashed part of the orbit path shows where the satellite is in the earth's shadow,  

DLR